DW2149 Weather Reports


time (UTC)temp
C
wind
direction
speed
KPH
gust
KPH
rain 1hr
cm
rain 24hr
cm
rain mn
cm
humidity
%
barometer
mb
20260831211158 29 214 1.6 9.7 0.00 0.00 0.00 32 1009.6
20260831210951 29 170 1.6 9.7 0.00 0.00 0.00 34 1009.5
20260831210739 29 236 1.6 11.3 0.00 0.00 0.00 34 1009.4
20260831210535 28 236 1.6 11.3 0.00 0.00 0.00 35 1009.5
20260831210332 28 214 1.6 11.3 0.00 0.00 0.00 34 1009.5
20260831210126 28 222 1.6 11.3 0.00 0.00 0.00 34 1009.5
20260831205918 28 74 1.6 11.3 0.00 0.00 0.00 32 1009.5
20260831205709 28 196 1.6 11.3 0.00 0.00 0.00 34 1009.6
20260831205502 28 70 1.6 11.3 0.00 0.00 0.00 33 1009.6
20260831205110 28 221 1.6 11.3 0.00 0.00 0.00 33 1009.6
20260831204908 28 214 0.0 11.3 0.00 0.00 0.00 32 1009.6
20260831204706 28 248 1.6 8.0 0.00 0.00 0.00 33 1009.6
20260831204502 28 84 1.6 8.0 0.00 0.00 0.00 34 1009.7
20260831204251 28 238 1.6 8.0 0.00 0.00 0.00 35 1009.8
20260831203856 28 216 1.6 9.7 0.00 0.00 0.00 34 1009.8
20260831203316 28 227 1.6 9.7 0.00 0.00 0.00 35 1009.7
20260831203113 28 211 1.6 9.7 0.00 0.00 0.00 35 1009.8
20260831202906 28 236 1.6 9.7 0.00 0.00 0.00 34 1009.8
20260831202703 28 215 1.6 9.7 0.00 0.00 0.00 34 1009.8
20260831202456 27 216 1.6 9.7 0.00 0.00 0.00 36 1009.8
20260831202101 27 216 3.2 9.7 0.00 0.00 0.00 35 1009.8
20260831201849 27 224 3.2 14.5 0.00 0.00 0.00 34 1009.9
20260831201457 27 211 3.2 14.5 0.00 0.00 0.00 36 1009.8
20260831201102 27 216 3.2 14.5 0.00 0.00 0.00 34 1009.9
20260831200710 27 219 3.2 14.5 0.00 0.00 0.00 35 1010.0
20260831200504 27 244 1.6 14.5 0.00 0.00 0.00 36 1009.9
20260831200252 27 213 1.6 14.5 0.00 0.00 0.00 35 1009.9
20260831195900 27 211 1.6 11.3 0.00 0.00 0.00 36 1010.0
20260831195648 27 212 1.6 11.3 0.00 0.00 0.00 36 1010.1
20260831195437 27 205 1.6 11.3 0.00 0.00 0.00 38 1010.1
20260831195230 27 205 1.6 11.3 0.00 0.00 0.00 37 1010.0
20260831195027 26 209 1.6 11.3 0.00 0.00 0.00 38 1010.0
20260831194820 26 205 3.2 11.3 0.00 0.00 0.00 37 1010.1
20260831194610 26 46 1.6 9.7 0.00 0.00 0.00 40 1010.2
20260831194400 26 77 3.2 9.7 0.00 0.00 0.00 37 1010.1
20260831194158 26 210 1.6 9.7 0.00 0.00 0.00 39 1010.2
20260831193954 26 232 1.6 16.1 0.00 0.00 0.00 37 1010.1
20260831193746 26 338 1.6 16.1 0.00 0.00 0.00 37 1010.2
20260831193359 26 200 1.6 16.1 0.00 0.00 0.00 38 1010.3
20260831193149 26 194 3.2 16.1 0.00 0.00 0.00 37 1010.3
20260831192940 26 192 3.2 16.1 0.00 0.00 0.00 39 1010.4
20260831192738 26 210 3.2 16.1 0.00 0.00 0.00 37 1010.3
20260831192525 26 211 4.8 16.1 0.00 0.00 0.00 39 1010.3
20260831192320 27 221 4.8 16.1 0.00 0.00 0.00 38 1010.3
20260831192111 26 284 3.2 11.3 0.00 0.00 0.00 37 1010.3
20260831191902 26 224 3.2 9.7 0.00 0.00 0.00 36 1010.3
20260831191513 27 208 1.6 9.7 0.00 0.00 0.00 37 1010.3
20260831191309 26 229 1.6 9.7 0.00 0.00 0.00 42 1010.3
20260831190912 26 221 1.6 9.7 0.00 0.00 0.00 41 1010.4
20260831190701 26 216 0.0 9.7 0.00 0.00 0.00 39 1010.4
20260831190451 27 240 0.0 9.7 0.00 0.00 0.00 38 1010.4
20260831190059 26 242 1.6 11.3 0.00 0.00 0.00 37 1010.4
20260831185849 26 218 1.6 11.3 0.00 0.00 0.00 36 1010.4
20260831185637 26 209 1.6 11.3 0.00 0.00 0.00 38 1010.4
20260831185425 26 241 1.6 11.3 0.00 0.00 0.00 36 1010.4
20260831185219 26 241 3.2 11.3 0.00 0.00 0.00 35 1010.4
20260831185014 26 225 1.6 11.3 0.00 0.00 0.00 36 1010.4
20260831184803 26 224 1.6 11.3 0.00 0.00 0.00 39 1010.4
20260831184415 26 219 1.6 11.3 0.00 0.00 0.00 36 1010.4
20260831184206 26 227 1.6 11.3 0.00 0.00 0.00 37 1010.4
20260831183954 25 237 1.6 4.8 0.00 0.00 0.00 39 1010.4
20260831183602 25 190 1.6 11.3 0.00 0.00 0.00 38 1010.4
20260831183211 25 214 1.6 11.3 0.00 0.00 0.00 41 1010.3
20260831183002 25 213 0.0 12.9 0.00 0.00 0.00 40 1010.3
20260831182752 25 219 0.0 12.9 0.00 0.00 0.00 38 1010.3
20260831182550 25 217 0.0 12.9 0.00 0.00 0.00 39 1010.3
20260831182345 24 217 1.6 12.9 0.00 0.00 0.00 39 1010.3
20260831182135 24 217 1.6 12.9 0.00 0.00 0.00 41 1010.3
20260831181927 24 217 1.6 12.9 0.00 0.00 0.00 41 1010.3
20260831181722 24 217 1.6 12.9 0.00 0.00 0.00 41 1010.3
20260831181512 24 221 1.6 12.9 0.00 0.00 0.00 40 1010.3
20260831181118 24 215 1.6 12.9 0.00 0.00 0.00 40 1010.3
20260831180911 23 217 1.6 9.7 0.00 0.00 0.00 40 1010.3
20260831180707 23 217 1.6 9.7 0.00 0.00 0.00 40 1010.3
20260831180458 23 217 1.6 9.7 0.00 0.00 0.00 41 1010.3
20260831180250 23 217 1.6 9.7 0.00 0.00 0.00 42 1010.3
20260831180047 23 217 1.6 9.7 0.00 0.00 0.00 43 1010.2
20260831175843 23 217 1.6 9.7 0.00 0.00 0.00 43 1010.2
20260831175639 23 216 1.6 9.7 0.00 0.00 0.00 44 1010.2
20260831175251 23 215 1.6 9.7 0.00 0.00 0.00 44 1010.2
20260831175040 22 237 1.6 9.7 0.00 0.00 0.00 44 1010.2
20260831174833 22 230 1.6 9.7 0.00 0.00 0.00 45 1010.3
20260831174621 22 231 1.6 9.7 0.00 0.00 0.00 45 1010.2
20260831174415 22 231 1.6 9.7 0.00 0.00 0.00 46 1010.2
20260831174207 22 231 0.0 9.7 0.00 0.00 0.00 46 1010.2
20260831174003 22 219 0.0 9.7 0.00 0.00 0.00 46 1010.2
20260831173612 22 223 0.0 3.2 0.00 0.00 0.00 47 1010.2
20260831173402 21 223 0.0 3.2 0.00 0.00 0.00 48 1010.2
20260831173151 21 223 0.0 0.0 0.00 0.00 0.00 48 1010.2
20260831172940 21 223 0.0 3.2 0.00 0.00 0.00 49 1010.2
20260831172543 21 223 0.0 1.6 0.00 0.00 0.00 50 1010.2
20260831172332 21 223 0.0 0.0 0.00 0.00 0.00 50 1010.1
20260831171935 20 227 0.0 0.0 0.00 0.00 0.00 50 1010.1
20260831171733 20 227 0.0 0.0 0.00 0.00 0.00 51 1010.1
20260831171346 20 227 0.0 0.0 0.00 0.00 0.00 51 1010.1
20260831170950 20 227 0.0 6.4 0.00 0.00 0.00 51 1010.0
20260831170744 20 227 0.0 6.4 0.00 0.00 0.00 52 1010.0
20260831170538 19 227 0.0 6.4 0.00 0.00 0.00 54 1010.0
20260831170151 19 232 0.0 3.2 0.00 0.00 0.00 55 1010.0
20260831165939 18 231 0.0 0.0 0.00 0.00 0.00 56 1009.9
20260831165729 18 231 0.0 0.0 0.00 0.00 0.00 57 1010.0
20260831165519 18 231 0.0 0.0 0.00 0.00 0.00 57 1009.9
20260831165315 18 231 0.0 0.0 0.00 0.00 0.00 58 1010.0
20260831164733 17 231 0.0 6.4 0.00 0.00 0.00 60 1009.9
20260831164528 17 231 0.0 6.4 0.00 0.00 0.00 62 1010.0
20260831164317 17 231 0.0 0.0 0.00 0.00 0.00 64 1010.0
20260831164107 17 231 0.0 0.0 0.00 0.00 0.00 64 1010.0
20260831163857 16 231 0.0 1.6 0.00 0.00 0.00 65 1009.9
20260831163645 16 231 0.0 0.0 0.00 0.00 0.00 66 1010.0
20260831163436 16 231 0.0 0.0 0.00 0.00 0.00 66 1010.0
20260831163227 16 231 0.0 1.6 0.00 0.00 0.00 68 1010.0
20260831162837 16 231 0.0 4.8 0.00 0.00 0.00 69 1010.0
20260831162630 15 231 0.0 4.8 0.00 0.00 0.00 70 1010.0
20260831162426 15 231 0.0 3.2 0.00 0.00 0.00 71 1010.1
20260831162221 15 231 0.0 0.0 0.00 0.00 0.00 73 1010.0
20260831162015 15 231 0.0 0.0 0.00 0.00 0.00 74 1010.1
20260831161805 15 231 0.0 0.0 0.00 0.00 0.00 75 1010.0
20260831161552 15 231 0.0 1.6 0.00 0.00 0.00 77 1010.1
20260831161344 15 231 0.0 0.0 0.00 0.00 0.00 77 1010.1
20260831160946 14 231 0.0 0.0 0.00 0.00 0.00 77 1010.1
20260831160734 14 231 0.0 0.0 0.00 0.00 0.00 77 1010.1
20260831160526 14 231 0.0 0.0 0.00 0.00 0.00 77 1010.1
20260831160323 14 231 0.0 0.0 0.00 0.00 0.00 77 1010.1
20260831160120 14 231 0.0 0.0 0.00 0.00 0.00 76 1010.2
20260831155733 13 231 0.0 0.0 0.00 0.00 0.00 76 1010.2
20260831155529 13 231 0.0 0.0 0.00 0.00 0.00 76 1010.2
20260831155321 13 231 0.0 0.0 0.00 0.00 0.00 76 1010.2
20260831155120 13 231 0.0 0.0 0.00 0.00 0.00 75 1010.2
20260831154907 13 231 0.0 0.0 0.00 0.00 0.00 75 1010.2
20260831154703 13 231 0.0 0.0 0.00 0.00 0.00 75 1010.2
20260831154450 13 231 0.0 0.0 0.00 0.00 0.00 75 1010.2
20260831154241 13 231 0.0 0.0 0.00 0.00 0.00 74 1010.1
20260831154035 13 231 0.0 0.0 0.00 0.00 0.00 74 1010.1
20260831153832 13 231 0.0 0.0 0.00 0.00 0.00 74 1010.2
20260831153619 13 231 0.0 0.0 0.00 0.00 0.00 74 1010.2
20260831153228 13 231 0.0 0.0 0.00 0.00 0.00 73 1010.2
20260831153026 13 231 0.0 0.0 0.00 0.00 0.00 73 1010.1
20260831152823 13 231 0.0 0.0 0.00 0.00 0.00 73 1010.1
20260831152616 13 231 0.0 0.0 0.00 0.00 0.00 73 1010.1
20260831152405 13 231 0.0 0.0 0.00 0.00 0.00 72 1010.1
20260831152159 13 231 0.0 0.0 0.00 0.00 0.00 72 1010.1
20260831151950 13 231 0.0 0.0 0.00 0.00 0.00 72 1010.1
20260831151746 12 231 0.0 0.0 0.00 0.00 0.00 72 1010.1
20260831151537 12 231 0.0 0.0 0.00 0.00 0.00 72 1010.1
20260831151142 12 231 0.0 0.0 0.00 0.00 0.00 71 1010.1
20260831150939 12 231 0.0 0.0 0.00 0.00 0.00 71 1010.1
20260831150735 12 231 0.0 0.0 0.00 0.00 0.00 71 1010.0
20260831150528 12 231 0.0 0.0 0.00 0.00 0.00 71 1010.0
20260831150318 12 231 0.0 0.0 0.00 0.00 0.00 71 1010.0
20260831150107 12 231 0.0 0.0 0.00 0.00 0.00 71 1010.0
20260831145904 12 231 0.0 0.0 0.00 0.00 0.00 71 1010.1
20260831145655 12 231 0.0 0.0 0.00 0.00 0.00 70 1010.0
20260831145452 12 231 0.0 0.0 0.00 0.00 0.00 70 1010.1
20260831145240 12 231 0.0 0.0 0.00 0.00 0.00 70 1010.1
20260831145028 12 231 0.0 0.0 0.00 0.00 0.00 70 1010.2
20260831144819 12 231 0.0 0.0 0.00 0.00 0.00 70 1010.1
20260831144615 12 231 0.0 0.0 0.00 0.00 0.00 70 1010.1
20260831144407 12 231 0.0 0.0 0.00 0.00 0.00 70 1010.1
20260831144157 12 231 0.0 0.0 0.00 0.00 0.00 70 1010.1
20260831143946 12 231 0.0 0.0 0.00 0.00 0.00 70 1010.1
20260831143739 12 231 0.0 0.0 0.00 0.00 0.00 70 1010.1
20260831143533 12 231 0.0 0.0 0.00 0.00 0.00 69 1010.1
20260831143320 12 231 0.0 0.0 0.00 0.00 0.00 70 1010.1
20260831143117 12 231 0.0 0.0 0.00 0.00 0.00 70 1010.0
20260831142726 12 231 0.0 0.0 0.00 0.00 0.00 69 1010.0
20260831142336 12 231 0.0 0.0 0.00 0.00 0.00 69 1010.0
20260831142134 12 231 0.0 0.0 0.00 0.00 0.00 69 1010.0
20260831141929 12 231 0.0 0.0 0.00 0.00 0.00 69 1010.0
20260831141715 12 231 0.0 0.0 0.00 0.00 0.00 69 1010.0
20260831141501 12 231 0.0 0.0 0.00 0.00 0.00 69 1010.0
20260831141255 12 231 0.0 0.0 0.00 0.00 0.00 69 1010.0
20260831140904 12 231 0.0 0.0 0.00 0.00 0.00 69 1010.0
20260831140655 12 231 0.0 0.0 0.00 0.00 0.00 69 1010.0
20260831140450 12 231 0.0 0.0 0.00 0.00 0.00 69 1009.9
20260831140243 12 231 0.0 0.0 0.00 0.00 0.00 69 1009.9
20260831140034 12 231 0.0 0.0 0.00 0.00 0.00 68 1009.9
20260831135822 12 231 0.0 0.0 0.00 0.00 0.00 68 1009.9
20260831135621 12 231 0.0 0.0 0.00 0.00 0.00 68 1009.8
20260831135228 12 231 0.0 0.0 0.00 0.00 0.00 68 1009.8
20260831135017 12 231 0.0 0.0 0.00 0.00 0.00 68 1009.8
20260831134814 12 231 0.0 0.0 0.00 0.00 0.00 68 1009.7
20260831134612 12 231 0.0 0.0 0.00 0.00 0.00 68 1009.7
20260831134408 12 231 0.0 0.0 0.00 0.00 0.00 68 1009.8
20260831134200 12 231 0.0 0.0 0.00 0.00 0.00 68 1009.7
20260831133948 12 231 0.0 0.0 0.00 0.00 0.00 68 1009.7
20260831133743 12 231 0.0 0.0 0.00 0.00 0.00 68 1009.6
20260831133538 12 231 0.0 0.0 0.00 0.00 0.00 68 1009.6
20260831133141 12 231 0.0 0.0 0.00 0.00 0.00 68 1009.6
20260831132938 12 231 0.0 0.0 0.00 0.00 0.00 68 1009.6
20260831132550 12 231 0.0 0.0 0.00 0.00 0.00 67 1009.5
20260831132348 12 231 0.0 0.0 0.00 0.00 0.00 67 1009.6
20260831131605 12 231 0.0 0.0 0.00 0.00 0.00 67 1009.5
20260831131354 13 231 0.0 0.0 0.00 0.00 0.00 67 1009.5
20260831131144 13 231 0.0 0.0 0.00 0.00 0.00 67 1009.6
20260831130936 13 231 0.0 0.0 0.00 0.00 0.00 67 1009.6
20260831130729 13 231 0.0 0.0 0.00 0.00 0.00 67 1009.5
20260831130522 13 231 0.0 0.0 0.00 0.00 0.00 67 1009.6
20260831130314 13 231 0.0 0.0 0.00 0.00 0.00 67 1009.6
20260831130110 13 231 0.0 0.0 0.00 0.00 0.00 67 1009.6
20260831125907 13 231 0.0 0.0 0.00 0.00 0.00 67 1009.6
20260831125512 13 231 0.0 0.0 0.00 0.00 0.00 67 1009.6
20260831125306 13 231 0.0 0.0 0.00 0.00 0.00 67 1009.6
20260831125052 13 231 0.0 0.0 0.00 0.00 0.00 67 1009.6
20260831124654 13 231 0.0 0.0 0.00 0.00 0.00 67 1009.5
20260831124441 13 231 0.0 0.0 0.00 0.00 0.00 67 1009.6
20260831124232 13 231 0.0 0.0 0.00 0.00 0.00 67 1009.6
20260831124026 13 231 0.0 0.0 0.00 0.00 0.00 67 1009.5
20260831123821 13 231 0.0 0.0 0.00 0.00 0.00 67 1009.5
20260831123434 13 231 0.0 0.0 0.00 0.00 0.00 66 1009.5
20260831123228 13 231 0.0 0.0 0.00 0.00 0.00 66 1009.5
20260831123022 13 231 0.0 0.0 0.00 0.00 0.00 66 1009.5
20260831122811 13 231 0.0 0.0 0.00 0.00 0.00 66 1009.4
20260831122607 13 231 0.0 0.0 0.00 0.00 0.00 66 1009.4
20260831122357 13 231 0.0 0.0 0.00 0.00 0.00 66 1009.5
20260831122148 13 231 0.0 0.0 0.00 0.00 0.00 66 1009.5
20260831121940 13 231 0.0 0.0 0.00 0.00 0.00 66 1009.5
20260831121730 13 231 0.0 0.0 0.00 0.00 0.00 66 1009.5
20260831121528 13 231 0.0 0.0 0.00 0.00 0.00 66 1009.5
20260831121319 13 231 0.0 0.0 0.00 0.00 0.00 66 1009.5
20260831121110 13 231 0.0 0.0 0.00 0.00 0.00 66 1009.5
20260831120713 13 231 0.0 0.0 0.00 0.00 0.00 66 1009.5
20260831120502 13 231 0.0 0.0 0.00 0.00 0.00 66 1009.5
20260831120259 13 231 0.0 0.0 0.00 0.00 0.00 66 1009.5
20260831115904 13 231 0.0 0.0 0.00 0.00 0.00 66 1009.5
20260831115507 13 231 0.0 0.0 0.00 0.00 0.00 65 1009.6
20260831115301 13 231 0.0 0.0 0.00 0.00 0.00 65 1009.5
20260831115046 13 231 0.0 0.0 0.00 0.00 0.00 65 1009.5
20260831114833 13 231 0.0 0.0 0.00 0.00 0.00 66 1009.6
20260831114627 13 231 0.0 0.0 0.00 0.00 0.00 65 1009.6
20260831114423 13 231 0.0 0.0 0.00 0.00 0.00 65 1009.5
20260831114208 13 231 0.0 0.0 0.00 0.00 0.00 65 1009.6
20260831113815 13 231 0.0 0.0 0.00 0.00 0.00 65 1009.6
20260831113608 13 231 0.0 0.0 0.00 0.00 0.00 65 1009.5
20260831113357 13 231 0.0 0.0 0.00 0.00 0.00 65 1009.5
20260831113145 13 231 0.0 0.0 0.00 0.00 0.00 65 1009.5
20260831112933 13 231 0.0 0.0 0.00 0.00 0.00 65 1009.5
20260831112723 13 231 0.0 0.0 0.00 0.00 0.00 65 1009.6
20260831112520 13 231 0.0 0.0 0.00 0.00 0.00 65 1009.5
20260831112308 13 231 0.0 0.0 0.00 0.00 0.00 65 1009.6
20260831112102 13 231 0.0 0.0 0.00 0.00 0.00 65 1009.6
20260831111715 13 231 0.0 0.0 0.00 0.00 0.00 65 1009.7
20260831111513 13 231 0.0 0.0 0.00 0.00 0.00 65 1009.7
20260831111311 13 231 0.0 0.0 0.00 0.00 0.00 65 1009.6
20260831111101 13 231 0.0 0.0 0.00 0.00 0.00 65 1009.6
20260831110852 13 231 0.0 0.0 0.00 0.00 0.00 65 1009.7
20260831110643 13 231 0.0 0.0 0.00 0.00 0.00 65 1009.7
20260831110441 13 231 0.0 0.0 0.00 0.00 0.00 65 1009.7
20260831110233 13 231 0.0 0.0 0.00 0.00 0.00 65 1009.7
20260831110021 13 231 0.0 0.0 0.00 0.00 0.00 65 1009.7
20260831105631 13 231 0.0 0.0 0.00 0.00 0.00 64 1009.7
20260831105427 13 231 0.0 0.0 0.00 0.00 0.00 64 1009.7
20260831105214 13 231 0.0 0.0 0.00 0.00 0.00 64 1009.7
20260831105004 13 231 0.0 0.0 0.00 0.00 0.00 64 1009.7
20260831104607 13 231 0.0 0.0 0.00 0.00 0.00 64 1009.7
20260831104402 13 231 0.0 0.0 0.00 0.00 0.00 64 1009.7
20260831104150 13 231 0.0 0.0 0.00 0.00 0.00 64 1009.7
20260831103943 13 231 0.0 0.0 0.00 0.00 0.00 64 1009.7
20260831103731 13 231 0.0 0.0 0.00 0.00 0.00 64 1009.7
20260831103519 13 231 0.0 0.0 0.00 0.00 0.00 64 1009.6
20260831103313 13 231 0.0 0.0 0.00 0.00 0.00 64 1009.6
20260831103109 13 231 0.0 0.0 0.00 0.00 0.00 64 1009.6
20260831102859 13 231 0.0 0.0 0.00 0.00 0.00 64 1009.6
20260831102651 13 231 0.0 0.0 0.00 0.00 0.00 64 1009.5
20260831102254 13 231 0.0 0.0 0.00 0.00 0.00 64 1009.5
20260831102042 13 231 0.0 0.0 0.00 0.00 0.00 64 1009.5
20260831101840 13 231 0.0 0.0 0.00 0.00 0.00 64 1009.6
20260831101453 13 231 0.0 0.0 0.00 0.00 0.00 64 1009.5
20260831101240 13 231 0.0 0.0 0.00 0.00 0.00 64 1009.5
20260831100845 13 231 0.0 0.0 0.00 0.00 0.00 64 1009.5
20260831100632 13 231 0.0 0.0 0.00 0.00 0.00 64 1009.5
20260831100421 13 231 0.0 0.0 0.00 0.00 0.00 63 1009.5
20260831100215 13 231 0.0 0.0 0.00 0.00 0.00 64 1009.5
20260831100014 13 231 0.0 0.0 0.00 0.00 0.00 63 1009.5
20260831095627 13 231 0.0 0.0 0.00 0.00 0.00 63 1009.4
20260831095414 13 231 0.0 0.0 0.00 0.00 0.00 63 1009.4
20260831095207 13 231 0.0 0.0 0.00 0.00 0.00 63 1009.4
20260831095004 13 231 0.0 0.0 0.00 0.00 0.00 63 1009.4
20260831094617 13 231 0.0 0.0 0.00 0.00 0.00 63 1009.4
20260831094415 13 231 0.0 0.0 0.00 0.00 0.00 63 1009.4
20260831094025 13 231 0.0 0.0 0.00 0.00 0.00 62 1009.4
20260831093822 13 231 0.0 0.0 0.00 0.00 0.00 62 1009.5
20260831093610 13 231 0.0 0.0 0.00 0.00 0.00 62 1009.4
20260831093402 13 231 0.0 0.0 0.00 0.00 0.00 62 1009.5
20260831093008 13 231 0.0 0.0 0.00 0.00 0.00 62 1009.4
20260831092615 13 231 0.0 0.0 0.00 0.00 0.00 62 1009.4
20260831092406 14 231 0.0 0.0 0.00 0.00 0.00 62 1009.4
20260831092201 14 231 0.0 0.0 0.00 0.00 0.00 62 1009.4
20260831091949 14 231 0.0 0.0 0.00 0.00 0.00 62 1009.4
20260831091741 14 231 0.0 0.0 0.00 0.00 0.00 62 1009.4
20260831091536 14 231 0.0 0.0 0.00 0.00 0.00 62 1009.4
20260831091334 14 231 0.0 0.0 0.00 0.00 0.00 62 1009.4
20260831090942 14 231 0.0 0.0 0.00 0.00 0.00 62 1009.4
20260831090734 14 231 0.0 0.0 0.00 0.00 0.00 62 1009.4
20260831090522 14 231 0.0 0.0 0.00 0.00 0.00 61 1009.4
20260831085856 14 231 0.0 0.0 0.00 0.00 0.00 61 1009.5
20260831085654 14 231 0.0 0.0 0.00 0.00 0.00 61 1009.5
20260831085450 14 231 0.0 0.0 0.00 0.00 0.00 61 1009.6
20260831085239 14 231 0.0 0.0 0.00 0.00 0.00 61 1009.6
20260831085036 14 231 0.0 0.0 0.00 0.00 0.00 61 1009.6
20260831084828 14 231 0.0 0.0 0.00 0.00 0.00 61 1009.7
20260831084432 14 231 0.0 0.0 0.00 0.00 0.00 61 1009.6
20260831084222 14 231 0.0 0.0 0.00 0.00 0.00 61 1009.6
20260831084017 14 231 0.0 0.0 0.00 0.00 0.00 61 1009.6
20260831083811 14 231 0.0 0.0 0.00 0.00 0.00 61 1009.6
20260831083600 14 231 0.0 0.0 0.00 0.00 0.00 61 1009.6
20260831083357 14 231 0.0 0.0 0.00 0.00 0.00 61 1009.6
20260831083149 14 231 0.0 0.0 0.00 0.00 0.00 61 1009.5
20260831082755 14 231 0.0 0.0 0.00 0.00 0.00 61 1009.6
20260831082543 14 231 0.0 0.0 0.00 0.00 0.00 61 1009.6
20260831082339 14 231 0.0 0.0 0.00 0.00 0.00 61 1009.6
20260831081945 14 231 0.0 0.0 0.00 0.00 0.00 61 1009.7
20260831081743 14 231 0.0 0.0 0.00 0.00 0.00 60 1009.8
20260831081352 14 231 0.0 0.0 0.00 0.00 0.00 60 1009.7
20260831080957 14 231 0.0 0.0 0.00 0.00 0.00 60 1009.8
20260831080559 14 231 0.0 0.0 0.00 0.00 0.00 60 1009.8
20260831080357 14 231 0.0 0.0 0.00 0.00 0.00 60 1009.8
20260831080144 14 231 0.0 0.0 0.00 0.00 0.00 60 1009.9
20260831075934 14 231 0.0 0.0 0.00 0.00 0.00 60 1009.8
20260831075722 14 231 0.0 0.0 0.00 0.00 0.00 60 1009.9
20260831075513 15 231 0.0 0.0 0.00 0.00 0.00 60 1009.8
20260831075119 15 231 0.0 0.0 0.00 0.00 0.00 60 1009.8
20260831074910 15 231 0.0 0.0 0.00 0.00 0.00 60 1009.9
20260831074706 15 231 0.0 0.0 0.00 0.00 0.00 60 1009.9
20260831074501 15 231 0.0 0.0 0.00 0.00 0.00 59 1009.9
20260831074108 15 231 0.0 0.0 0.00 0.00 0.00 59 1009.9
20260831073903 15 231 0.0 0.0 0.00 0.00 0.00 59 1009.8
20260831073652 15 231 0.0 0.0 0.00 0.00 0.00 59 1009.8
20260831073254 15 231 0.0 0.0 0.00 0.00 0.00 59 1009.9
20260831073043 15 231 0.0 0.0 0.00 0.00 0.00 59 1009.9
20260831072830 15 231 0.0 0.0 0.00 0.00 0.00 59 1009.8
20260831072625 15 231 0.0 0.0 0.00 0.00 0.00 59 1009.8
20260831072045 15 231 0.0 0.0 0.00 0.00 0.00 59 1009.9
20260831071838 15 231 0.0 0.0 0.00 0.00 0.00 59 1009.9
20260831071629 15 231 0.0 0.0 0.00 0.00 0.00 59 1009.9
20260831071421 15 231 0.0 0.0 0.00 0.00 0.00 59 1009.9
20260831071216 15 231 0.0 0.0 0.00 0.00 0.00 59 1009.9
20260831070827 15 231 0.0 0.0 0.00 0.00 0.00 59 1009.9
20260831070616 15 231 0.0 0.0 0.00 0.00 0.00 59 1009.9
20260831070225 15 231 0.0 0.0 0.00 0.00 0.00 58 1009.9
20260831070023 15 231 0.0 0.0 0.00 0.00 0.00 58 1009.9
20260831065818 15 231 0.0 0.0 0.00 0.00 0.00 58 1009.9
20260831065609 15 231 0.0 0.0 0.00 0.00 0.00 58 1009.9
20260831065402 15 231 0.0 0.0 0.00 0.00 0.00 58 1009.9
20260831065155 15 231 0.0 0.0 0.00 0.00 0.00 58 1009.9
20260831064951 15 231 0.0 0.0 0.00 0.00 0.00 58 1010.0
20260831064743 15 231 0.0 0.0 0.00 0.00 0.00 58 1010.0
20260831064541 15 231 0.0 0.0 0.00 0.00 0.00 58 1010.0
20260831064328 15 231 0.0 0.0 0.00 0.00 0.00 57 1010.0
20260831064125 15 231 0.0 0.0 0.00 0.00 0.00 57 1010.0
20260831063915 15 231 0.0 0.0 0.00 0.00 0.00 57 1010.0
20260831063710 15 231 0.0 0.0 0.00 0.00 0.00 57 1010.0
20260831063504 15 231 0.0 0.0 0.00 0.00 0.00 57 1010.0
20260831063258 15 231 0.0 0.0 0.00 0.00 0.00 57 1010.0
20260831063046 15 231 0.0 0.0 0.00 0.00 0.00 57 1010.0
20260831062841 15 231 0.0 0.0 0.00 0.00 0.00 57 1010.0
20260831062637 15 231 0.0 0.0 0.00 0.00 0.00 57 1010.0
20260831062432 15 231 0.0 0.0 0.00 0.00 0.00 57 1010.0
20260831062041 15 231 0.0 0.0 0.00 0.00 0.00 56 1010.1
20260831061811 15 231 0.0 0.0 0.00 0.00 0.00 56 1010.1
20260831061602 16 231 0.0 0.0 0.00 0.00 0.00 56 1010.1
20260831061349 16 231 0.0 0.0 0.00 0.00 0.00 56 1010.0
20260831061145 16 231 0.0 0.0 0.00 0.00 0.00 56 1010.1
20260831060939 16 231 0.0 0.0 0.00 0.00 0.00 56 1010.0
20260831060732 16 231 0.0 0.0 0.00 0.00 0.00 56 1009.9
20260831060528 16 231 0.0 0.0 0.00 0.00 0.00 56 1010.0
20260831060314 16 231 0.0 0.0 0.00 0.00 0.00 55 1009.9
20260831055926 16 231 0.0 0.0 0.00 0.00 0.00 55 1010.0
20260831055719 16 231 0.0 0.0 0.00 0.00 0.00 55 1010.0
20260831055511 16 231 0.0 0.0 0.00 0.00 0.00 55 1010.0
20260831055305 16 231 0.0 0.0 0.00 0.00 0.00 55 1010.0
20260831054914 16 231 0.0 0.0 0.00 0.00 0.00 55 1010.0
20260831054705 16 231 0.0 0.0 0.00 0.00 0.00 55 1010.1
20260831054455 16 231 0.0 0.0 0.00 0.00 0.00 55 1010.0
20260831054251 16 231 0.0 0.0 0.00 0.00 0.00 55 1010.1
20260831054042 16 231 0.0 0.0 0.00 0.00 0.00 55 1010.0
20260831053839 16 231 0.0 0.0 0.00 0.00 0.00 54 1010.0
20260831053451 16 231 0.0 0.0 0.00 0.00 0.00 54 1010.0
20260831053242 16 231 0.0 0.0 0.00 0.00 0.00 54 1010.0
20260831053037 16 231 0.0 0.0 0.00 0.00 0.00 54 1010.0
20260831052826 16 231 0.0 0.0 0.00 0.00 0.00 54 1010.0
20260831052617 16 231 0.0 0.0 0.00 0.00 0.00 54 1010.0
20260831052412 16 231 0.0 0.0 0.00 0.00 0.00 54 1010.0
20260831052208 17 231 0.0 0.0 0.00 0.00 0.00 54 1010.0
20260831052003 17 231 0.0 0.0 0.00 0.00 0.00 54 1010.1
20260831051752 17 231 0.0 0.0 0.00 0.00 0.00 54 1010.2
20260831051209 17 231 0.0 0.0 0.00 0.00 0.00 53 1010.1
20260831050813 17 231 0.0 0.0 0.00 0.00 0.00 53 1010.1
20260831050610 17 231 0.0 0.0 0.00 0.00 0.00 53 1010.1
20260831050218 17 231 0.0 0.0 0.00 0.00 0.00 53 1010.1
20260831050013 17 231 0.0 0.0 0.00 0.00 0.00 53 1010.2
20260831045807 17 231 0.0 0.0 0.00 0.00 0.00 53 1010.2
20260831045606 17 231 0.0 0.0 0.00 0.00 0.00 52 1010.1
20260831045401 17 231 0.0 0.0 0.00 0.00 0.00 53 1010.1
20260831045151 17 231 0.0 0.0 0.00 0.00 0.00 52 1010.2
20260831044942 17 231 0.0 0.0 0.00 0.00 0.00 52 1010.2
20260831044729 17 231 0.0 0.0 0.00 0.00 0.00 52 1010.2
20260831044517 18 231 0.0 0.0 0.00 0.00 0.00 52 1010.2
20260831044315 18 231 0.0 0.0 0.00 0.00 0.00 52 1010.2
20260831044111 18 231 0.0 0.0 0.00 0.00 0.00 52 1010.2
20260831043909 18 231 0.0 0.0 0.00 0.00 0.00 51 1010.1
20260831043656 18 231 0.0 0.0 0.00 0.00 0.00 51 1010.1
20260831043308 18 231 0.0 0.0 0.00 0.00 0.00 51 1010.2
20260831042915 18 231 0.0 0.0 0.00 0.00 0.00 51 1010.2
20260831042526 18 231 0.0 0.0 0.00 0.00 0.00 50 1010.1
20260831042321 18 231 0.0 0.0 0.00 0.00 0.00 50 1010.1
20260831042117 18 231 0.0 0.0 0.00 0.00 0.00 50 1010.1
20260831041729 18 231 0.0 0.0 0.00 0.00 0.00 50 1010.1
20260831041517 18 231 0.0 0.0 0.00 0.00 0.00 50 1010.1
20260831040944 19 231 0.0 0.0 0.00 0.00 0.00 49 1010.0
20260831040552 19 231 0.0 0.0 0.00 0.00 0.00 48 1009.9
20260831040339 19 231 0.0 0.0 0.00 0.00 0.00 48 1009.9
20260831035943 20 231 0.0 0.0 0.00 0.00 0.00 48 1009.9
20260831035732 20 231 0.0 0.0 0.00 0.00 0.00 47 1009.9
20260831035527 20 231 0.0 0.0 0.00 0.00 0.00 47 1009.8
20260831035321 20 231 0.0 0.0 0.00 0.00 0.00 47 1009.8
20260831035117 20 231 0.0 0.0 0.00 0.00 0.00 47 1009.9
20260831034912 20 231 0.0 0.0 0.00 0.00 0.00 47 1009.9
20260831034704 20 231 0.0 0.0 0.00 0.00 0.00 46 1009.8
20260831034500 20 231 0.0 0.0 0.00 0.00 0.00 46 1009.8
20260831034253 20 231 0.0 0.0 0.00 0.00 0.00 46 1009.8
20260831034052 20 231 0.0 0.0 0.00 0.00 0.00 45 1009.8
20260831033849 20 231 0.0 0.0 0.00 0.00 0.00 45 1009.7
20260831033639 20 231 0.0 0.0 0.00 0.00 0.00 45 1009.7
20260831033433 21 231 0.0 0.0 0.00 0.00 0.00 45 1009.6
20260831033220 21 231 0.0 0.0 0.00 0.00 0.00 45 1009.6
20260831032826 21 231 0.0 0.0 0.00 0.00 0.00 44 1009.5
20260831032614 21 231 0.0 0.0 0.00 0.00 0.00 44 1009.5
20260831032403 21 231 0.0 0.0 0.00 0.00 0.00 44 1009.4
20260831032151 21 231 0.0 0.0 0.00 0.00 0.00 44 1009.4
20260831031757 21 231 0.0 0.0 0.00 0.00 0.00 43 1009.3
20260831031548 22 231 0.0 0.0 0.00 0.00 0.00 43 1009.3
20260831031340 22 231 0.0 0.0 0.00 0.00 0.00 43 1009.3
20260831031129 22 231 0.0 0.0 0.00 0.00 0.00 43 1009.3
20260831030925 22 231 0.0 0.0 0.00 0.00 0.00 43 1009.3
20260831030715 22 231 0.0 0.0 0.00 0.00 0.00 43 1009.3
20260831030508 22 231 0.0 0.0 0.00 0.00 0.00 43 1009.2
20260831030258 22 231 0.0 0.0 0.00 0.00 0.00 43 1009.2
20260831030053 22 231 0.0 0.0 0.00 0.00 0.00 43 1009.2
20260831025842 22 231 0.0 0.0 0.00 0.00 0.00 42 1009.2
20260831025310 23 231 0.0 0.0 0.00 0.00 0.00 42 1009.2
20260831024914 23 231 0.0 0.0 0.00 0.00 0.00 42 1009.2
20260831024520 23 231 0.0 0.0 0.00 0.00 0.00 42 1009.2
20260831024315 23 231 0.0 0.0 0.00 0.00 0.00 42 1009.2
20260831023926 23 231 0.0 0.0 0.00 0.00 0.00 41 1009.2
20260831023718 23 231 0.0 0.0 0.00 0.00 0.00 41 1009.2
20260831023515 23 231 0.0 0.0 0.00 0.00 0.00 41 1009.2
20260831022934 23 231 0.0 0.0 0.00 0.00 0.00 41 1009.2
20260831022536 24 231 0.0 0.0 0.00 0.00 0.00 40 1009.1
20260831022330 24 231 0.0 0.0 0.00 0.00 0.00 40 1009.1
20260831022128 24 231 0.0 0.0 0.00 0.00 0.00 40 1009.1
20260831021922 24 231 0.0 0.0 0.00 0.00 0.00 40 1009.1
20260831021715 25 231 0.0 0.0 0.00 0.00 0.00 40 1009.2
20260831021509 25 231 0.0 0.0 0.00 0.00 0.00 40 1009.1
20260831021301 25 231 0.0 0.0 0.00 0.00 0.00 40 1009.2
20260831021049 25 231 0.0 0.0 0.00 0.00 0.00 39 1009.1
20260831020838 25 231 0.0 0.0 0.00 0.00 0.00 39 1009.1
20260831020635 25 231 0.0 0.0 0.00 0.00 0.00 39 1009.1
20260831020426 25 231 0.0 0.0 0.00 0.00 0.00 38 1009.1
20260831020216 25 231 0.0 0.0 0.00 0.00 0.00 38 1009.0
20260831020011 25 231 0.0 0.0 0.00 0.00 0.00 38 1009.1
20260831015803 25 231 0.0 0.0 0.00 0.00 0.00 38 1009.0
20260831015558 25 231 0.0 0.0 0.00 0.00 0.00 38 1009.1
20260831015356 26 230 0.0 0.0 0.00 0.00 0.00 38 1009.1
20260831015145 26 230 0.0 1.6 0.00 0.00 0.00 38 1009.1
20260831014935 26 230 0.0 0.0 0.00 0.00 0.00 37 1009.1
20260831014725 26 230 0.0 0.0 0.00 0.00 0.00 38 1009.2
20260831014519 26 231 0.0 0.0 0.00 0.00 0.00 37 1009.2
20260831014310 26 231 0.0 0.0 0.00 0.00 0.00 37 1009.1
20260831014107 26 230 0.0 1.6 0.00 0.00 0.00 36 1009.2
20260831013720 26 230 0.0 0.0 0.00 0.00 0.00 36 1009.2
20260831013507 26 230 0.0 0.0 0.00 0.00 0.00 36 1009.1
20260831013302 26 230 0.0 1.6 0.00 0.00 0.00 35 1009.1
20260831013056 26 230 0.0 4.8 0.00 0.00 0.00 34 1009.1
20260831012844 26 231 0.0 4.8 0.00 0.00 0.00 35 1009.1
20260831012450 27 231 0.0 4.8 0.00 0.00 0.00 34 1009.1
20260831012057 27 257 0.0 3.2 0.00 0.00 0.00 35 1009.1
20260831011850 27 257 0.0 3.2 0.00 0.00 0.00 35 1009.1
20260831011647 27 257 0.0 3.2 0.00 0.00 0.00 34 1009.2
20260831011437 27 257 0.0 3.2 0.00 0.00 0.00 34 1009.2
20260831011227 27 257 0.0 0.0 0.00 0.00 0.00 34 1009.1
20260831011022 27 257 0.0 1.6 0.00 0.00 0.00 33 1009.3
20260831010444 27 257 0.0 1.6 0.00 0.00 0.00 34 1009.2
20260831010233 27 257 0.0 6.4 0.00 0.00 0.00 33 1009.1
20260831010024 27 257 0.0 6.4 0.00 0.00 0.00 34 1009.2
20260831005816 27 258 0.0 6.4 0.00 0.00 0.00 33 1009.3
20260831005430 27 258 0.0 6.4 0.00 0.00 0.00 33 1009.1
20260831005220 28 258 0.0 6.4 0.00 0.00 0.00 33 1009.2
20260831005018 28 245 0.0 3.2 0.00 0.00 0.00 33 1009.1
20260831004808 28 245 0.0 0.0 0.00 0.00 0.00 33 1009.2
20260831004607 28 245 0.0 12.9 0.00 0.00 0.00 33 1009.2
20260831004404 28 245 1.6 12.9 0.00 0.00 0.00 32 1009.2
20260831004158 28 245 1.6 12.9 0.00 0.00 0.00 33 1009.2
20260831003948 28 245 1.6 12.9 0.00 0.00 0.00 33 1009.2
20260831003737 28 277 1.6 12.9 0.00 0.00 0.00 32 1009.2
20260831003527 28 277 1.6 12.9 0.00 0.00 0.00 32 1009.3
20260831003314 28 270 1.6 12.9 0.00 0.00 0.00 32 1009.3
20260831003109 28 266 1.6 12.9 0.00 0.00 0.00 33 1009.3
20260831002901 28 281 0.0 6.4 0.00 0.00 0.00 33 1009.3
20260831002659 28 264 0.0 6.4 0.00 0.00 0.00 33 1009.2
20260831002308 28 263 0.0 6.4 0.00 0.00 0.00 33 1009.3
20260831001919 28 273 0.0 11.3 0.00 0.00 0.00 34 1009.2
20260831001716 28 285 0.0 11.3 0.00 0.00 0.00 33 1009.2
20260831001504 28 284 0.0 11.3 0.00 0.00 0.00 33 1009.2
20260831001255 28 284 0.0 11.3 0.00 0.00 0.00 33 1009.2
20260831001044 28 269 0.0 4.8 0.00 0.00 0.00 33 1009.2
20260831000649 28 197 0.0 4.8 0.00 0.00 0.00 36 1009.2
20260831000435 28 197 1.6 4.8 0.00 0.00 0.00 33 1009.3
20260831000228 28 222 0.0 4.8 0.00 0.00 0.00 33 1009.3
20260830235655 28 273 0.0 6.4 0.00 0.00 0.00 33 1009.2
20260830235448 28 273 0.0 6.4 0.00 0.00 0.00 34 1009.2
20260830235243 28 212 0.0 1.6 0.00 0.00 0.00 33 1009.2
20260830234700 28 233 0.0 11.3 0.00 0.00 0.00 33 1009.2
20260830234453 28 272 0.0 11.3 0.00 0.00 0.00 32 1009.2
20260830234248 28 272 0.0 11.3 0.00 0.00 0.00 33 1009.2
20260830234040 28 272 1.6 11.3 0.00 0.00 0.00 33 1009.2
20260830233828 29 272 1.6 11.3 0.00 0.00 0.00 34 1009.2
20260830233624 29 273 1.6 11.3 0.00 0.00 0.00 34 1009.2
20260830233413 29 267 0.0 4.8 0.00 0.00 0.00 32 1009.3
20260830233015 29 278 0.0 4.8 0.00 0.00 0.00 33 1009.2
20260830232811 29 280 0.0 4.8 0.00 0.00 0.00 34 1009.1
20260830232423 28 304 0.0 6.4 0.00 0.00 0.00 33 1009.2
20260830232214 28 308 0.0 6.4 0.00 0.00 0.00 34 1009.2
20260830232006 28 229 0.0 6.4 0.00 0.00 0.00 36 1009.2
20260830231759 28 232 1.6 0.0 0.00 0.00 0.00 34 1009.2
20260830231546 28 232 1.6 8.0 0.00 0.00 0.00 36 1009.3
20260830231339 28 246 1.6 8.0 0.00 0.00 0.00 34 1009.3
20260830231137 29 274 1.6 8.0 0.00 0.00 0.00 33 1009.4
20260830230924 29 310 1.6 8.0 0.00 0.00 0.00 33 1009.3
20260830230718 29 280 1.6 8.0 0.00 0.00 0.00 33 1009.3
20260830230508 29 327 0.0 8.0 0.00 0.00 0.00 33 1009.3
20260830230301 29 335 0.0 8.0 0.00 0.00 0.00 34 1009.4
20260830230053 29 246 0.0 8.0 0.00 0.00 0.00 33 1009.3
20260830225851 29 297 0.0 1.6 0.00 0.00 0.00 35 1009.3
20260830225647 29 314 0.0 0.0 0.00 0.00 0.00 34 1009.3
20260830225435 29 314 1.6 8.0 0.00 0.00 0.00 34 1009.4
20260830225227 29 0 1.6 11.3 0.00 0.00 0.00 35 1009.4
20260830225022 29 315 1.6 11.3 0.00 0.00 0.00 33 1009.6
20260830224812 29 217 1.6 11.3 0.00 0.00 0.00 33 1009.6
20260830224606 29 218 3.2 11.3 0.00 0.00 0.00 34 1009.6
20260830224353 29 242 3.2 11.3 0.00 0.00 0.00 34 1009.5
20260830224002 29 220 3.2 11.3 0.00 0.00 0.00 33 1009.6
20260830223755 29 207 3.2 11.3 0.00 0.00 0.00 34 1009.5
20260830223407 29 221 1.6 9.7 0.00 0.00 0.00 34 1009.5
20260830223203 29 196 1.6 9.7 0.00 0.00 0.00 34 1009.6
20260830222815 29 211 1.6 11.3 0.00 0.00 0.00 34 1009.6
20260830222608 29 254 1.6 11.3 0.00 0.00 0.00 35 1009.6
20260830222359 29 215 1.6 11.3 0.00 0.00 0.00 33 1009.7
20260830222156 29 215 1.6 11.3 0.00 0.00 0.00 34 1009.8
20260830221944 29 207 3.2 11.3 0.00 0.00 0.00 36 1009.8
20260830221732 29 186 3.2 11.3 0.00 0.00 0.00 34 1009.8
20260830221527 29 209 1.6 11.3 0.00 0.00 0.00 34 1009.8
20260830221316 28 265 1.6 11.3 0.00 0.00 0.00 35 1009.9
20260830221106 29 220 1.6 11.3 0.00 0.00 0.00 35 1009.9
20260830220858 29 236 1.6 11.3 0.00 0.00 0.00 37 1009.9
20260830220655 28 236 1.6 11.3 0.00 0.00 0.00 36 1009.9
20260830220303 28 273 1.6 11.3 0.00 0.00 0.00 35 1010.0
20260830220055 28 219 1.6 4.8 0.00 0.00 0.00 36 1010.0
20260830215842 28 193 1.6 8.0 0.00 0.00 0.00 35 1010.0
20260830215634 29 182 1.6 8.0 0.00 0.00 0.00 36 1010.0
20260830215243 29 215 1.6 8.0 0.00 0.00 0.00 35 1010.1
20260830215038 29 237 1.6 8.0 0.00 0.00 0.00 35 1010.2
20260830214826 28 285 1.6 9.7 0.00 0.00 0.00 37 1010.1
20260830214623 29 304 1.6 9.7 0.00 0.00 0.00 35 1010.1
20260830214419 28 287 1.6 9.7 0.00 0.00 0.00 35 1010.2
20260830214213 28 243 1.6 9.7 0.00 0.00 0.00 37 1010.2
20260830214002 28 227 1.6 9.7 0.00 0.00 0.00 37 1010.2
20260830213606 28 224 1.6 9.7 0.00 0.00 0.00 37 1010.2
20260830213211 28 212 0.0 9.7 0.00 0.00 0.00 38 1010.3
20260830213010 28 215 0.0 9.7 0.00 0.00 0.00 38 1010.2
20260830212804 28 163 0.0 8.0 0.00 0.00 0.00 38 1010.2
20260830212556 28 268 0.0 8.0 0.00 0.00 0.00 37 1010.2
20260830212352 28 200 1.6 8.0 0.00 0.00 0.00 39 1010.2
20260830212141 28 175 1.6 8.0 0.00 0.00 0.00 37 1010.2
20260830211935 28 169 1.6 8.0 0.00 0.00 0.00 37 1010.3
20260830211546 28 205 1.6 8.0 0.00 0.00 0.00 38 1010.3
20260830211338 28 199 0.0 4.8 0.00 0.00 0.00 38 1010.3